Location: Dos Palmas
(32.4468°N, 116.8732°W)
Time: 05:35:46
(UTC+00:00)

NOSS 3-4 (C) - Pass Details

Date: 20 June 2021
Orbit: 868 x 1344 km, 63.4° (Epoch: 26 July)

Event Time Altitude Azimuth Distance (km) Brightness Sun altitude
Exits shadow 11:17:34 17° 197° (SSW) 2,033 4.7 -15.2°
Maximum altitude 11:21:59 69° 117° (ESE) 934 3.5 -14.5°
Drops below altitude 10° 11:27:54 10° 35° (NE) 2,604 7.0 -13.5°
Sets 11:30:31 0° 33° (NNE) 3,598 8.0 -13.1°
